Location: Little Chesterford
(52.0500°N, 0.1833°E)
Time: 15:26:44
(UTC+00:00)

USA 238 - Pass Details

Date: 26 September 2023
Orbit: 939 x 1273 km, 63.4° (Epoch: 22 October)

Event Time Altitude Azimuth Distance (km) Brightness Sun altitude
Rises 22:47:34 0° 310° (NW) 3,876 7.4 -37.7°
Reaches altitude 10° 22:50:12 10° 315° (NW) 2,965 6.6 -37.8°
Enters shadow 22:56:07 53° 1° (N) 1,404 4.4 -38.1°
